Powrót do katalogu

DELTA 1 DEB

AktywnySSO
NORAD 18429·DEBRIS·🇺🇸 United States

Wystrzelony Jul 29, 1976 z Vandenberg Space Force Base

Loading…

Następne Przeloty (najbliższe 24 godziny)

TLE

ŚwieżeSource: Space-Track

Epoka: Sep 14, 2026, 02:15 UTC

1 18429U 76077EZ  26257.09430447 -.00000243  00000-0 -21228-2 0  9992
2 18429 102.4709 303.5818 0228345  46.3064 343.1740 12.06423324626401

Śledź DELTA 1 DEB w czasie rzeczywistym z AllMySat

Download on the App Store